Regional Weather Roundup
Issued by NWS

Home | Current Version | Previous Version | Text Only | Print | Product List | Glossary On
Versions: 1 2 3 4 5 6 7 8 9 10 11 12 13 14 15 16 17 18 19 20 21 22 23 24 25 26 27 28 29 30 31 32 33 34 35 36 37 38 39 40 41 42 43 44 45 46 47 48 49 50
847
ASUS44 KLUB 261301
RWRTX
WEST TEXAS WEATHER ROUNDUP
NATIONAL WEATHER SERVICE LUBBOCK TX
800 AM CDT WED JUL 26 2017

NOTE: "FAIR" INDICATES FEW OR NO CLOUDS BELOW 12,000 FEET WITH NO
SIGNIFICANT WEATHER AND/OR OBSTRUCTIONS TO VISIBILITY.

TXZ004-006>008-010-012-014-016-OKZ002-261400-
TEXAS PANHANDLE/OKLAHOMA PANHANDLE

CITY           SKY/WX    TMP DP  RH WIND       PRES   REMARKS
AMARILLO       MOSUNNY   77  60  55 SW15      30.11S
BORGER         MOSUNNY   80  62  54 SW12G18   30.07R
CANADIAN       MOSUNNY   80  66  62 W6        30.03R
DALHART        SUNNY     77  58  51 SW10      30.12R
DUMAS          SUNNY     74  60  61 SW14      30.09S
GUYMON         SUNNY     78  61  55 SW12      30.04R
PERRYTON       CLOUDY    79  63  57 S14       30.03R
$$

TXZ026-029-035-045-048-261400-
SOUTHERN PANHANDLE/SOUTH PLAINS/ROLLING PLAINS

CITY           SKY/WX    TMP DP  RH WIND       PRES   REMARKS
CHILDRESS      SUNNY     77  63  61 S9        30.05R
SEMINOLE       PTSUNNY   71  63  77 SE5       30.15R
LUBBOCK        PTSUNNY   78  64  61 SW14      30.12S
PLAINVIEW      SUNNY     73  61  67 SW10      30.11S
SNYDER         SUNNY     74  67  77 S8        30.11S
$$

TXZ052-054-060>062-072-078-127-140-154-169-261400-
PERMIAN BASIN/CONCHO VALLEY/BIG COUNTRY/EDWARDS PLATEAU

CITY           SKY/WX    TMP DP  RH WIND       PRES   REMARKS
ABILENE        SUNNY     78  70  76 S8        30.09S
BIG SPRING     SUNNY     76  66  71 S14       30.13R
BROWNWOOD      SUNNY     77  72  83 S5        30.11R
JUNCTION       SUNNY     76  71  85 CALM      30.12R
MIDLAND        SUNNY     75  65  70 S10       30.11R
ODESSA         SUNNY     75  65  70 S14       30.12R
SAN ANGELO     SUNNY     76  68  76 S6        30.11R
SONORA         SUNNY     75  70  83 S7        30.16S
SWEETWATER     SUNNY     77  69  75 S13       30.13R
WINK           MOSUNNY   76  66  71 SE10      30.07S
$$

TXZ055-058-074-075-080-082-261400-
FAR WEST/SOUTHWEST MOUNTAINS/TRANS PECOS

CITY           SKY/WX    TMP DP  RH WIND       PRES   REMARKS
ALPINE         CLEAR     70  60  70 SW6       30.25R
DRYDEN           N/A     75  67  76 E5        30.08R
EL PASO        PTCLDY    78  67  68 S6        30.13R
FORT STOCKTON  SUNNY     73  66  78 S15       30.10R
GUADALUPE PASS CLEAR     71  60  68 SW12      30.26R
MARFA          CLEAR     65  62  90 N3        30.24R
PRESIDIO       FAIR      79  62  55 N5        30.10R
$$

TXZ014-016-019-021>030-083-261400
TEXAS TECH WEST TEXAS MESONET/TEXAS PANHANDLE/NORTHERN SOUTH PLAINS

CITY           SKY/WX    TMP DP  RH WIND       PRES   REMARKS
ABERNATHY 5ENE   N/A     75  62  64 SW9       30.13F
AMARILLO 9NNE    N/A     79  61  53 S21       30.08S
AMARILLO 7SSE    N/A     75  60  60 SW12      30.12S
AMHERST 1NE      N/A     70  61  72 S7        30.14S
BOOTLEG 11WNW    N/A     73  59  61 SW12      30.19S
CANADIAN 6E      N/A     77  64  64 SE5       30.02R
CAPROCK CYN SP   N/A     79  62  55 SW18      30.07S
CHILDRESS 2NNE   N/A     78  63  59 S10       30.05R
CLARENDON 2WSW   N/A     76  62  61 S8        30.09R
CLAUDE 12SW      N/A     80  60  51 SW8       30.11S
DIMMITT 2NE      N/A     70  61  73 S10       30.15R
FLOYDADA 2NNE    N/A     74  63  68 S8        30.12S
FRIONA 2NE       N/A     71  60  67 S7        30.16S
GOODLETT 3W      N/A     80  63  55 S9        30.03R
HART 3N          N/A     71  61  71 S7        30.14S
HEREFORD 2NW     N/A     72  58  60 SW6       30.14S
MCLEAN 1E        N/A     75  61  62 S8        30.06S
MEMPHIS 1NE      N/A     74  63  68 CALM      30.05S
MULESHOE 2SSW    N/A     73  61  65 S10       30.14S
OLTON 6S         N/A     71  62  73 S9        30.13F
PALO DURO SP     N/A     75  61  60 SW9       30.13R
PAMPA 2E         N/A     78  62  57 S12       30.08R
PLAINVIEW 1S     N/A     73  62  70 SW7       30.12S
SILVERTON 7ESE   N/A     76  61  59 SW14      30.10S
TULIA 2ENE       N/A     74  63  68 S14       30.13R
TURKEY 2WSW      N/A     80  64  58 SW13      30.06S
UMBARGER 3NNE    N/A     74  61  63 SW10      30.14S
$$

TXZ033>036-039>041-045>048-261400
TEXAS TECH WEST TEXAS MESONET/SOUTH PLAINS

CITY           SKY/WX    TMP DP  RH WIND       PRES   REMARKS
AIKEN 3WSW       N/A     73  63  69 S8        30.14R
ANDREWS 2NE      N/A     72  63  72 SE7       30.13S
ANTON 6SSW       N/A     72  64  76 S6        30.13S
BROWNFIELD 2S    N/A     72  62  69 S8        30.13S
DENVR CTY 7WNW   N/A     71  60  67 SE7       30.14S
GAIL 2ESE        N/A     76  64  65 S5        30.11R
LAMESA 2SE       N/A     74  65  74 S6        30.13R
LEVELLAND 4S     N/A     72  60  67 S8        30.14S
LUBBOCK 3WNW     N/A     78  62  58 S12       30.12S
MORTON 1ENE      N/A     71  62  72 S7        30.14S
ODONNELL 1N      N/A     74  62  64 S10       30.12S
PLAINS 3N        N/A     73  60  65 S6        30.15R
RALLS 1SE        N/A     75  63  65 S8        30.13R
REESE CENTER     N/A     74  62  66 S12       30.13S
SEAGRAVES 1SW    N/A     71  62  74 SE3       30.14R
SEMINOLE 2NNE    N/A     70  61  74 SE5       30.14R
SLATON 2NE       N/A     76  64  65 S14       30.12R
SNYDER 3E        N/A     76  67  74 S8        30.10S
SUNDOWN 8SW      N/A     69  61  75 S7        30.14S
TAHOKA 3NNE      N/A     75  63  66 S13       30.13R
WOLFFORTH 6SSW   N/A     75  62  63 S9        30.13S
$$

TXZ031-032-036>038-042>044-261400-
TEXAS TECH WEST TEXAS MESONET/ROLLING PLAINS

CITY           SKY/WX    TMP DP  RH WIND       PRES   REMARKS
ASPERMONT 3NE    N/A     79  67  66 S8        30.06S
FLUVANNA 3WNW    N/A     74  64  70 S9        30.11S
GRAHAM 5SSW      N/A     76  64  67 S9        30.12S
GUTHRIE 10WSW    N/A     77  63  61 S9        30.07R
HASKELL 1NW      N/A     79  65  62 S9        30.05S
JAYTON 1SSE      N/A     77  66  68 S7        30.08R
KNOX CITY 3NW    N/A     81  66  61 S8        30.06R
LK A HENRY 1NW   N/A     79  64  61 S13       30.09R
NORTHFIELD 1S    N/A     77  64  62 S7        30.05R
ODELL 4ENE       N/A     80  68  67 S10       30.03S
PADUCAH 10SW     N/A     75  65  70 S10       30.06R
POST 1NE         N/A     78  64  61 S13       30.10R
RRING SPRGS 3N   N/A     78  65  65 S8        30.09R
SEYMOUR 3NW      N/A     80  67  64 S9        30.04S
SPUR 1W          N/A     73  62  70 SW2       30.08R
WEINERT 2NNE     N/A     80  69  67 S9        30.06R
WHITE RVR 6NE    N/A     75  62  62 S6        30.11R
$$

TXZ052-054-060>062-072-078-127-140-154-169-261400-
TEXAS TECH WEST TEXAS MESONET/PERMIAN BASIN/
CONCHO VALLEY/BIG COUNTRY/EDWARDS PLATEAU

CITY           SKY/WX    TMP DP  RH WIND       PRES   REMARKS
COYANOSA 2N      N/A     75  66  73 E10       30.08R
JUNCTION 1SSW    N/A     76  72  85 CALM      30.12S
MERTZON 3NNE     N/A     75  69  81 S8        30.13R
SAN ANGELO 7NW   N/A     77  67  71 S2        30.11R
STRLNG CT 4WSW   N/A     76  69  77 SE7       30.13R
ST LAWRNCE 5SW   N/A     74  67  77 SE13      30.12R
SWEETWATR 11SW   N/A     76  69  81 S10       30.13S
WALL 1E          N/A     76  70  82 S6        30.12R
$$

TXZ055-058-074-075-080-082-261400-
TEXAS TECH WEST TEXAS MESONET/FAR WEST/SOUTHWEST MOUNTAINS/TRANS PECOS

CITY           SKY/WX    TMP DP  RH WIND       PRES   REMARKS
PRSMN GAP BBNP   N/A     76  65  67 NE9       30.10R
GUADLPE MTN NP   N/A     71  57  60 SW7       30.27R
$$




USA.gov is the U.S. government's official web portal to all federal, state and local government web resources and services.